Regional Weather Roundup
Issued by NWS

Home | Current Version | Previous Version | Text Only | Print | Product List | Glossary Off
Versions: 1 2 3 4 5 6 7 8 9 10 11 12 13 14 15 16 17 18 19 20 21 22 23 24 25 26 27 28 29 30 31 32 33 34 35 36 37 38 39 40 41 42 43 44 45 46 47 48 49 50

000
ASUS43 KMPX 241901
RWRMN
WEATHER ROUNDUP FOR MINNESOTA
NATIONAL WEATHER SERVICE TWIN CITIES/CHANHASSEN MN
200 PM CDT MON JUL 24 2017


NOTE: "FAIR" INDICATES FEW OR NO CLOUDS BELOW 12,000 FEET WITH NO
SIGNIFICANT WEATHER AND/OR OBSTRUCTIONS TO VISIBILITY. N/A MEANS
CURRENT SKY AND/OR WEATHER CONDITIONS ARE NOT AVAILABLE.

MNZ060>063-068>070-242000-
   Twin Cities Metro

CITY           SKY/WX    TMP DP  RH WIND       PRES   REMARKS
TWIN CITIES    CLOUDY    75  58  55 S8        30.05F
ST PAUL        CLOUDY    74  60  61 S5        30.05S
CRYSTAL        CLOUDY    75  57  53 SE8       30.03S
BLAINE         PTSUNNY   75  59  57 SE9       30.04S
LAKEVILLE      PTSUNNY   72  61  68 SE3       30.06S
EDEN PRAIRIE   CLOUDY    74  60  61 SE7       30.04S
SOUTH ST PAUL  MOSUNNY   74  58  58 SE3       30.05S
LAKE ELMO      PTSUNNY   73  61  64 SE5       30.06F
$$
MNZ001>005-007-008-013>017-022>024-027-028-242000-
   Northwest Minnesota

CITY           SKY/WX    TMP DP  RH WIND       PRES   REMARKS
BEMIDJI        CLOUDY    77  59  53 SE9       29.99F
HALLOCK        SUNNY     79  64  61 S14G23    29.89S
ROSEAU         SUNNY     79  66  65 S14       29.94F
WARROAD        MOSUNNY   77  66  69 S8G16     29.95F
CROOKSTON      MOSUNNY   75  63  64 S16       29.93F
FOSSTON        CLOUDY    73  61  64 S10       29.97F
DETROIT LAKES  MOSUNNY   75  59  57 S13       29.99F
MOORHEAD       MOSUNNY   77  61  57 S14G21    29.96S
PARK RAPIDS    CLOUDY    75  57  53 SE10      30.00F
MAHNOMEN       FAIR      75  60  59 S9G16     29.97S
$$
MNZ006-009>011-018-025>026-242000-
   North Central Minnesota

CITY           SKY/WX    TMP DP  RH WIND       PRES   REMARKS
BAUDETTE       MOSUNNY   78  57  48 S12G20    29.97F
FLAG ISLAND    SUNNY     77  64  65 S10       29.95S
INTL FALLS     SUNNY     77  53  43 VRB5      30.00F
WASKISH        PTSUNNY   79  57  47 S3        29.99F
BIG FORK       SUNNY     77  57  50 S8        30.02F
LONGVILLE      CLOUDY    73  55  53 S8        30.02F
GRAND RAPIDS   SUNNY     71  58  63 SE8       30.06F
CRANE LAKE     SUNNY     73  52  46 S8        30.04F
ORR            SUNNY     75  50  41 S7        30.01F
COOK           SUNNY     73  52  46 SE6       30.04F
WALKER         FAIR      73  56  55 S8        30.01F
$$
MNZ012-019>021-037-242000-
   Northeast Minnesota

CITY           SKY/WX    TMP DP  RH WIND       PRES   REMARKS
DULUTH         MOSUNNY   71  54  54 SE10      30.06F
ELY            SUNNY     75  46  35 S10       30.05F
HIBBING        SUNNY     74  52  46 S8        30.05F
EVELETH        SUNNY     74  41  30 SE12      30.06F
DULUTH HARBOR  MOSUNNY   64  61  88 E6        30.07F
TWO HARBORS    SUNNY     75  59  57 CALM      30.05F
SILVER BAY     SUNNY     73  52  46 S6        30.06F
GRAND MARAIS     N/A     57  56  96 SW9       30.08S
G MARAIS ARPRT SUNNY     72  50  46 S6        30.11S
$$
MNZ029>031-032-039>041-046>048-054>057-064-242000-
   West Central Minnesota

CITY           SKY/WX    TMP DP  RH WIND       PRES   REMARKS
FERGUS FALLS   SUNNY     75  63  64 S14       29.98S
WHEATON        CLOUDY    77  63  61 SE15      29.97F
MORRIS         SUNNY     79  61  53 SE16      29.97F
ALEXANDRIA     MOSUNNY   74  61  63 SE8       30.03S
ELBOW LAKE     FAIR      74  63  67 SE12      29.99F
WADENA         MOSUNNY   73  57  56 SE10      30.00F
GLENWOOD       SUNNY     75  59  57 SE9       30.03R
APPLETON       MOSUNNY   79  59  50 S9G17     29.97S
BENSON         SUNNY     79  61  53 S9        30.01S
ORTONVILLE     MOSUNNY   79  63  57 SE12G18   29.96F
MADISON        MOSUNNY   81  64  57 SE12G17   29.97F
WILLMAR        FAIR      75  63  64 SE7       30.02F
$$
MNZ033>034-036-042>043-049>051-058-059-242000-
   Central Minnesota

CITY           SKY/WX    TMP DP  RH WIND       PRES   REMARKS
ST CLOUD       PTSUNNY   73  60  63 VRB7      30.03F
SAUK CENTRE    FAIR      74  61  63 SE9       30.01F
PAYNESVILLE    SUNNY     76  59  55 S10       30.02F
AITKIN         CLOUDY    72  57  60 SE7       30.03F
PINE RIVER     CLOUDY    73  55  53 S6        30.05F
BRAINERD       CLOUDY    72  59  63 VRB7      30.03F
STAPLES        MOSUNNY   73  55  53 SE7       30.01F
LONG PRAIRIE   PTSUNNY   72  61  68 E6        30.02F
LITTLE FALLS   CLOUDY    72  59  64 E8        30.04F
LITCHFIELD     MOSUNNY   77  63  61 E13       30.02F
BUFFALO        CLOUDY    74  58  58 SE8       30.04F
MAPLE LAKE     PTSUNNY   75  62  62 SE3       30.04F
HUTCHINSON     MOSUNNY   74  63  69 SE10      30.03F
$$
MNZ037-044-045-052-053-242000-
   East Central Minnesota

CITY           SKY/WX    TMP DP  RH WIND       PRES   REMARKS
PRINCETON      CLOUDY    75  61  60 S7        30.05S
MORA           CLOUDY    70  57  64 SE3       30.07S
CAMBRIDGE      CLOUDY    75  61  60 SE5       30.03F
RUSH CITY      CLOUDY    73  59  61 CALM      30.05F HAZE
MOOSE LAKE     SUNNY     73  54  49 CALM      30.04S
HINCKLEY       FAIR      72  61  68 SW3       30.06S
CLOQUET        SUNNY     73  50  43 SE5       30.06F
MCGREGOR       MOSUNNY   73  59  60 SE8       30.05F
$$
MNZ071>073-080-081-089-090-097-098-242000-
   Southwest Minnesota

CITY           SKY/WX    TMP DP  RH WIND       PRES   REMARKS
MONTEVIDEO     SUNNY     81  63  54 S9        29.98F
GRANITE FALLS  MOSUNNY   78  64  60 SE10      30.01F
CANBY          SUNNY     80  60  50 SE9G16    29.98F
MARSHALL       MOSUNNY   77  62  59 SE15      29.99F
REDWOOD FALLS  MOSUNNY   75  61  61 SE12      30.01S
OLIVIA         SUNNY     73  61  64 SE9       30.01S
PIPESTONE      SUNNY     79  64  61 S13       30.00S
WINDOM         SUNNY     77  61  57 E9        30.02F
WORTHINGTON    MOSUNNY   76  62  62 SE8G20    30.02
JACKSON        MOSUNNY   75  61  60 CALM      30.03F
TRACY          MOSUNNY   77  65  65 SE10      30.01S
SLAYTON        RAIN      76  62  61 SE10      30.02S
$$
MNZ065>067-074>077-082>085-091>093-242000-
   South Central Minnesota

CITY           SKY/WX    TMP DP  RH WIND       PRES   REMARKS
MANKATO        PTSUNNY   73  61  65 SE12      30.04F
NEW ULM        MOSUNNY   73  61  64 S9        30.02F
ST JAMES       MOSUNNY   73  63  68 E7        30.03F
FAIRMONT       MOSUNNY   74  62  66 SE10      30.04S
GLENCOE        CLOUDY    76  64  67 SE8       30.03F
FARIBAULT      CLOUDY    73  61  64 E7        30.06F
OWATONNA       CLOUDY    73  61  64 SE8       30.05F
WASECA         CLOUDY    72  61  68 SE7       30.06F
ALBERT LEA     CLOUDY    72  59  64 E9        30.06S
$$
MNZ078>079-086>088-094>096-242000-
   Southeast Minnesota

CITY           SKY/WX    TMP DP  RH WIND       PRES   REMARKS
ROCHESTER      CLOUDY    72  61  68 SE7       30.08S
RED WING       MOSUNNY   75  54  46 SE9       30.04F
STANTON        CLOUDY    75  60  58 S3        30.04F
DODGE CENTER   CLOUDY    72  57  60 E6        30.07F
WINONA         SUNNY     70  57  64 E9        30.08S
AUSTIN         CLOUDY    72  59  64 SE8       30.06F
PRESTON        PTSUNNY   69  57  66 E7        30.08F
$$
ABBREVIATIONS USED IN REMARKS
   TC - TEMPERATURES IN CELSIUS
  WCI - WIND CHILL INDEX
   HX - HEAT INDEX
  VSB - VISIBILITY
$$



USA.gov is the U.S. government's official web portal to all federal, state and local government web resources and services.